Temp_Advection
nan nan nan nan nan nan nan nan nan nan nan nan nan nan nan nan nan nan nan nan nan nan nan nan nan nan nan nan nan nan nan nan nan nan nan nan nan nan nan nan nan nan nan nan nan
nan 0 0 -0 -0 -0 0 -0 -0 -0 -0 -0 -0 0 0 0 -1 -1 -0 -0 -0 -0 -0 -0 -0 -0 -0 -1 -1 -0 -0 -2 -2 -0 -0 -0 0 0 -0 -0 0 -1 -1 0 nan
nan 0 -0 -0 -0 -0 -0 -0 0 0 -0 -0 0 0 0 0 -0 -0 0 -0 -0 -0 -0 -0 -0 -1 -1 -1 -1 0 -1 -1 -1 -1 -1 -1 -0 0 -0 -0 1 -1 -2 -0 nan
nan -0 -0 0 0 -0 -0 -0 -0 -0 -0 0 0 0 0 0 -0 0 0 0 -0 0 0 -0 -0 -1 -1 -1 -1 -0 -1 -0 -1 0 -0 -0 -1 -0 0 0 -0 1 -2 -1 nan
nan -0 -0 0 -0 -0 -0 -0 -0 -0 -0 0 0 0 0 -0 -1 -0 0 0 0 -0 -0 -0 -0 -1 -1 -1 -1 -1 -0 0 -0 -0 0 0 -1 -0 0 0 -0 -0 -1 -0 nan
nan 0 0 -0 -0 -0 -0 -0 -0 -0 -0 0 0 0 -0 -0 -0 -0 -0 -0 -0 -0 -0 -0 -0 -1 -1 -1 -1 -1 -1 -0 0 -0 0 0 -0 -0 0 0 -0 -0 -1 -1 nan
nan 0 -0 -0 -0 -0 -0 -0 -0 -0 0 0 0 -0 -1 -0 -0 -0 -0 -0 -0 -0 -0 -0 -0 -0 -1 -1 -1 -0 -1 -0 -0 -1 0 1 0 -1 -0 0 0 0 -0 -1 nan
nan -0 -0 -0 -0 -0 0 0 0 -0 0 0 0 -0 -0 0 -0 -0 -0 -0 -0 -0 -0 -0 -0 -0 -0 -1 -1 -1 -0 -0 -1 -1 -0 1 -0 -1 0 -0 0 0 -0 -0 nan
nan -0 -0 -0 -0 0 0 0 0 0 0 0 0 -0 -0 0 -0 -0 -0 -0 -0 -0 -0 0 0 -1 -1 -0 -0 0 -0 -1 -1 -1 -0 1 -1 -1 -0 -0 -0 -0 -0 0 nan
nan -0 -0 -0 0 1 1 1 0 0 0 0 0 -0 -0 -0 0 -0 0 0 -0 -0 -1 -0 -0 -0 -0 0 -0 -1 -1 -0 -1 -2 -0 0 -0 -0 -1 0 1 0 -0 -0 nan
nan -0 -0 0 0 0 0 0 0 0 0 -0 -0 -0 -0 -0 0 -0 0 0 0 -0 -0 -1 -0 -1 -1 -1 -0 -0 -0 -1 -2 -1 0 -0 0 -0 0 0 0 0 0 -0 nan
nan -0 -0 0 0 0 0 -0 0 0 -0 -0 -0 -0 -0 0 -0 -0 -0 -0 -0 -0 -1 -1 -0 -1 -1 -1 -2 -1 -1 -2 -2 -1 -1 -0 1 -0 0 -0 0 -0 0 0 nan
nan 0 -0 -0 0 0 0 0 0 0 -0 -0 0 0 0 -0 -0 -0 -0 -0 -0 -1 -1 -0 -0 -1 -1 -1 -1 -1 -1 -1 -2 -2 -2 1 0 -0 -0 0 -0 0 0 0 nan
nan 0 -0 0 0 -0 -0 0 0 0 0 -0 0 -0 0 0 -0 0 0 -0 -0 -0 -0 -0 -0 -0 -0 -0 0 -1 -1 -1 -1 -1 -2 -1 0 -0 -0 -1 -0 0 0 0 nan
nan 0 -0 -0 0 0 0 0 -0 -0 -0 0 -0 0 0 -0 -0 0 0 0 -0 -0 0 -0 -0 0 0 -0 0 0 -1 -0 -1 -1 -2 -1 -1 -1 -0 0 -1 -0 0 1 nan
nan -0 -0 0 0 -0 -0 0 0 0 0 0 -0 0 0 -0 0 0 0 -0 -0 -1 -1 -0 -0 -0 -0 -0 -0 -0 -0 -0 -0 0 -0 -2 -1 -1 -1 -0 0 1 1 1 nan
nan -0 -0 -0 0 -0 -0 -0 0 0 -0 -0 -0 0 -0 -0 0 0 -0 -1 -0 -0 -1 -1 -1 -1 -0 -1 -1 0 0 0 -0 -0 -1 -1 -1 -2 -0 -2 -1 -1 1 -1 nan
nan 0 1 0 -0 -0 0 0 -0 -0 -0 -0 0 0 -0 -0 -0 -0 -1 -1 -0 0 -0 -1 -0 -0 -0 0 0 -0 0 0 -0 -1 -1 -1 -1 1 -3 -4 -1 -3 -3 -2 nan
nan 0 0 0 0 0 0 -0 0 -0 -0 -0 -0 -0 -0 -1 -0 -0 -1 -1 -0 -0 0 -0 -1 -1 -1 -0 0 -0 -0 -0 0 1 -0 -1 1 -3 -2 -3 -4 -2 0 -1 nan
nan 0 0 0 0 0 -0 -0 0 -0 -0 -0 -0 -0 -0 -1 -0 -0 -0 -0 0 0 1 0 -0 -0 -0 -1 -0 0 -0 0 -0 0 -1 0 0 -1 -1 -1 -1 0 -0 -1 nan
nan -0 -0 0 0 0 -0 0 -0 -0 -0 -0 -0 -0 -0 -0 -0 -0 -0 -0 -0 -0 -0 0 0 -0 -0 -0 -0 0 -0 -0 -0 0 -0 -0 -0 -0 -0 -0 -1 -1 -2 -2 nan
nan -0 -0 0 -0 -0 -0 -0 -0 0 -0 0 -0 -0 -0 -0 -0 -0 -0 -0 -0 -0 -1 0 0 -0 0 1 1 -1 -0 -0 -0 -0 -0 -0 -0 0 -0 -0 -0 -1 -2 -2 nan
nan -1 -0 -0 -0 0 -0 -0 0 -0 -0 -0 -0 -0 -0 -0 -0 -0 -0 -0 -0 -1 -0 -0 -0 -0 -0 -0 -1 -2 -0 -1 0 -0 -1 -0 -0 -0 -1 -1 -1 -1 -2 -2 nan
nan -0 -0 0 0 -0 -0 -0 -0 -0 0 0 -0 -0 0 0 -0 -0 -0 -0 -0 -0 -0 -0 -1 -1 -1 -0 -0 -0 -0 -1 -2 -1 -0 -1 -1 -2 -1 -1 -1 -1 -2 -2 nan
nan 0 -0 0 0 0 0 -0 -0 -0 -0 -0 -0 -0 0 -0 -0 -0 -0 -0 -0 -0 -0 -0 -0 0 0 -0 -0 -0 -1 -1 -1 -1 -0 -0 -0 -1 -1 -1 -1 -2 -2 -1 nan
nan 0 0 0 0 -0 -0 -0 -0 -0 -0 -0 -0 -0 -0 -0 -0 -0 -0 -0 0 -0 -0 -0 -0 -0 0 0 -1 -1 -1 -1 -1 -1 -0 -0 -1 -1 -0 -1 -1 -1 -1 -1 nan
nan nan nan nan nan nan nan nan nan nan nan nan nan nan nan nan nan nan nan nan nan nan nan nan nan nan nan nan nan nan nan nan nan nan nan nan nan nan nan nan nan nan nan nan nan
Wind_Speed
2 2 1 1 1 1 2 2 2 2 2 3 3 3 5 13 17 11 6 8 7 7 4 11 10 10 10 14 15 14 10 14 18 18 18 2 3 5 3 8 14 5 9 22 24
3 2 1 1 2 1 2 2 2 3 3 3 2 2 2 8 13 16 17 11 8 4 4 11 10 10 13 15 16 12 12 19 20 18 13 4 7 6 9 10 13 14 16 18 25
1 1 1 1 2 2 2 3 3 3 2 2 2 2 3 8 1 12 18 10 7 6 9 10 10 11 15 17 21 20 16 18 24 18 9 14 7 9 9 11 18 20 19 20 22
1 1 1 1 2 3 3 4 4 3 2 3 3 6 8 6 3 13 18 15 7 12 12 10 9 12 15 16 19 21 22 24 24 26 3 11 17 11 9 7 7 15 25 22 21
1 1 2 2 3 3 4 5 5 4 3 3 5 12 10 8 10 14 18 14 12 9 9 9 11 13 14 14 20 19 18 25 23 23 9 10 17 16 9 8 10 13 15 18 20
1 1 2 3 3 4 5 5 6 4 3 8 11 6 3 12 10 14 15 11 10 9 10 9 11 14 13 17 17 22 22 17 20 28 18 14 18 20 16 17 10 12 17 18 19
1 2 3 3 4 4 5 7 7 6 11 19 22 17 18 8 10 14 14 12 10 10 10 10 10 8 11 15 14 18 20 18 22 23 17 19 21 23 22 18 18 17 18 20 23
3 4 3 2 3 5 7 9 11 13 15 14 12 9 7 8 11 15 16 15 11 11 10 11 11 15 17 16 22 18 18 17 19 23 25 18 25 19 28 28 25 25 23 24 24
5 5 3 3 5 9 12 17 17 21 18 12 6 8 6 5 13 17 18 19 11 13 11 12 10 15 16 14 15 15 18 23 22 25 22 24 26 19 30 36 28 24 24 26 25
7 5 6 5 9 20 26 26 20 12 6 4 5 7 13 8 8 17 21 16 14 16 14 15 17 13 12 11 17 17 20 21 24 23 23 25 23 17 24 17 30 24 26 25 27
8 6 7 5 8 16 10 4 2 8 19 18 13 11 8 7 8 17 21 15 16 13 12 16 9 12 19 19 23 22 25 28 26 20 24 23 22 21 21 16 15 21 27 23 22
8 8 5 8 9 9 4 3 5 16 11 10 12 11 9 3 8 16 18 15 16 16 18 11 11 15 19 19 21 21 23 26 24 25 21 18 22 16 19 21 20 19 20 25 25
8 8 6 9 11 9 4 4 5 5 5 5 5 8 13 3 9 15 20 14 11 14 15 9 10 15 17 17 19 19 19 20 24 22 24 15 15 16 17 27 26 24 21 19 22
9 8 7 11 8 4 4 3 3 5 5 4 6 5 10 3 2 10 14 11 11 12 10 5 9 9 11 15 15 18 20 24 24 20 16 20 15 19 19 20 16 25 23 21 26
11 8 7 5 3 0 1 2 3 1 2 4 5 2 1 9 9 14 6 7 13 11 9 11 13 15 13 12 11 16 16 21 24 22 21 27 14 16 22 20 23 15 22 18 14
13 8 11 7 5 4 2 4 2 3 2 3 2 6 6 13 3 12 7 5 6 13 11 16 16 6 11 11 13 14 16 17 19 16 16 22 19 16 15 19 23 31 31 26 24
15 14 9 7 2 6 7 0 2 4 2 4 5 6 5 8 6 8 8 14 11 13 14 15 10 10 9 13 14 3 10 9 9 13 13 18 16 13 13 15 18 14 15 18 25
17 17 12 10 8 5 2 3 5 5 5 3 4 8 5 6 7 11 11 13 11 14 14 10 6 10 10 10 12 16 11 6 9 12 15 22 17 10 17 31 22 24 27 27 23
13 12 10 8 8 6 3 5 3 5 5 6 6 5 4 13 9 7 15 12 11 12 8 6 7 15 14 17 6 6 8 11 14 11 3 8 17 15 20 23 28 33 24 22 21
6 1 9 8 8 7 4 2 4 5 6 4 7 4 8 10 7 8 10 6 11 13 9 4 7 11 6 7 5 10 6 4 3 2 6 12 5 8 12 14 13 12 17 19 19
3 3 4 5 5 1 3 5 6 5 7 7 6 6 8 6 7 6 7 5 12 14 14 6 4 9 7 9 10 0 6 6 7 1 4 3 4 10 15 13 15 20 22 21 20
2 1 4 7 3 6 6 4 2 5 2 3 4 8 7 7 6 7 6 4 11 17 12 10 4 4 10 13 18 22 17 7 3 3 4 4 6 14 18 20 21 22 25 25 23
4 7 5 6 3 5 8 8 8 7 7 4 5 5 2 5 3 10 8 8 8 14 11 11 7 6 3 4 17 24 24 22 11 5 14 6 5 18 23 23 23 24 26 27 25
1 3 4 8 9 9 7 3 5 5 6 4 3 2 3 4 9 7 9 11 2 14 7 4 11 13 10 9 11 13 26 26 21 9 6 11 17 23 21 20 24 26 26 27 26
4 3 2 1 7 9 7 3 7 4 2 8 2 5 4 5 3 12 12 11 4 13 3 4 9 15 14 19 23 25 26 28 26 19 12 16 15 20 20 22 30 33 31 29 27
3 4 7 7 6 7 3 6 9 7 8 5 5 5 1 4 4 6 8 10 10 10 3 1 10 9 9 11 23 21 19 23 23 21 16 14 12 26 26 27 26 29 30 29 27
6 7 2 5 5 7 4 5 7 7 4 7 7 3 2 5 4 4 10 12 15 9 5 3 4 4 2 8 5 9 18 11 14 12 10 11 12 26 25 28 24 29 30 29 27
Wind_Direction
133 142 170 204 272 301 351 5 2 8 1 3 15 33 86 97 65 43 11 325 314 299 325 349 306 281 268 263 254 254 261 257 255 258 271 189 124 146 167 259 249 164 80 129 139
140 152 162 277 286 352 354 337 344 355 352 352 22 35 111 144 109 36 359 346 346 345 20 340 313 297 257 261 246 219 247 246 263 273 322 15 151 210 162 229 224 148 112 129 147
113 94 292 305 333 2 334 329 354 9 349 3 44 76 126 154 141 12 349 346 358 354 337 312 298 285 278 263 250 238 243 267 278 321 330 312 329 250 159 231 229 165 141 144 156
87 348 319 344 9 354 345 348 350 359 359 29 64 96 106 76 56 349 0 354 337 355 346 312 298 277 264 263 253 255 250 260 273 283 326 292 285 281 198 272 87 196 152 153 167
54 10 342 13 6 353 353 347 343 347 2 66 104 127 104 86 29 354 357 345 358 320 312 306 304 295 275 277 271 260 252 257 262 276 256 264 273 266 213 216 106 128 142 159 177
47 1 14 15 352 353 354 353 353 356 53 96 100 117 64 85 7 355 356 355 343 328 311 294 300 308 305 285 285 289 281 277 272 265 255 242 253 257 239 232 174 176 169 171 178
2 355 16 1 349 8 17 24 37 63 103 117 103 84 76 47 9 3 360 346 334 325 311 294 305 281 301 304 278 280 275 273 258 263 242 252 248 242 233 222 229 210 209 190 186
354 344 354 347 10 48 58 63 73 84 116 120 90 69 87 48 23 12 4 353 332 321 291 293 282 272 271 279 286 277 267 260 251 243 246 235 250 235 230 231 209 219 212 210 195
12 7 44 71 79 79 93 78 90 97 86 71 56 104 66 8 10 9 0 346 336 330 293 278 271 266 273 259 263 243 255 252 251 243 240 219 243 246 253 216 209 203 212 209 208
29 55 83 93 106 108 98 87 79 45 64 86 33 110 36 13 17 2 2 353 343 329 300 253 239 254 242 244 257 262 250 237 248 254 225 235 230 238 268 227 206 203 205 203 209
44 63 78 74 126 141 127 42 91 73 70 79 68 73 29 22 39 16 10 19 7 1 1 327 308 293 301 299 290 283 272 271 277 269 229 252 224 207 230 208 217 213 223 194 208
41 44 85 75 100 129 104 315 48 130 90 74 71 55 32 38 29 20 10 17 18 22 7 347 294 341 337 328 314 302 290 284 276 272 277 260 227 239 242 201 207 216 217 194 184
36 41 79 97 94 82 74 131 116 151 131 72 63 43 20 35 40 16 12 359 25 14 3 -0 339 341 338 322 314 303 291 287 287 282 285 240 257 239 242 243 197 209 204 203 194
41 48 92 107 87 117 74 106 147 133 201 98 28 44 9 129 72 15 14 9 14 9 354 300 358 329 314 308 309 291 296 301 298 285 273 264 233 225 242 262 240 191 214 210 193
42 55 87 89 96 243 206 180 198 289 279 70 66 330 77 52 337 31 354 8 5 348 304 300 300 302 293 300 298 288 297 293 293 292 276 263 264 226 221 227 253 221 207 207 230
35 57 94 65 131 106 132 147 142 238 47 116 41 8 354 27 42 346 344 53 343 343 337 332 295 10 346 330 302 317 301 278 265 268 266 268 257 255 230 228 223 227 217 208 214
49 58 91 139 108 128 125 265 230 64 163 59 359 356 13 9 20 329 18 54 9 339 342 326 24 19 10 335 320 309 298 272 247 239 248 236 250 251 274 31 23 21 143 109 69
53 51 60 89 97 122 34 231 72 309 24 11 336 287 55 38 359 332 34 17 3 3 324 356 334 16 331 330 297 289 255 266 255 240 230 242 226 219 31 24 50 61 56 62 50
64 40 43 70 51 33 299 57 31 6 357 346 262 342 24 33 327 343 80 29 8 9 355 320 316 352 19 344 339 337 248 268 277 278 305 252 213 51 17 26 14 26 44 46 43
68 108 40 62 50 44 50 99 93 29 340 292 24 5 13 18 11 25 27 359 10 359 352 312 293 41 324 340 311 246 315 284 112 199 233 205 148 39 0 16 360 31 37 38 29
84 200 53 23 4 337 92 92 90 54 11 348 30 32 45 19 7 35 35 101 15 338 16 307 260 25 51 8 332 139 219 225 244 216 318 93 87 11 2 2 359 1 25 23 15
284 21 29 11 344 53 62 58 26 47 73 86 22 51 35 12 17 35 29 11 3 355 359 352 292 71 66 50 30 31 18 300 326 14 326 36 75 23 8 2 3 6 4 360 357
64 62 37 24 87 92 104 86 50 47 26 9 62 43 356 9 28 22 11 34 19 32 5 330 350 8 17 348 30 29 25 29 118 27 26 21 62 16 7 359 9 2 358 353 345
73 34 353 60 85 124 115 106 113 49 64 61 98 51 302 87 61 31 12 6 105 19 7 55 56 75 84 61 35 44 37 37 40 33 57 20 10 3 360 359 6 360 352 343 339
65 36 150 63 76 88 91 57 64 61 84 24 25 61 3 15 45 37 29 19 42 21 50 97 104 97 108 90 63 44 34 32 38 28 29 12 26 359 354 349 1 360 353 346 340
93 119 101 114 120 106 109 53 43 72 18 28 5 359 23 76 63 50 42 20 25 353 108 347 158 141 131 113 73 49 49 49 34 20 17 17 14 355 355 351 13 0 354 348 341
101 118 112 183 63 83 42 49 57 352 83 40 354 335 97 90 57 55 104 46 39 24 24 39 131 222 81 25 73 37 12 31 42 33 5 23 358 352 355 352 12 356 354 348 347
Height
1508 1508 1508 1508 1509 1509 1507 1506 1505 1505 1505 1505 1505 1505 1505 1506 1505 1506 1505 1506 1505 1504 1505 1505 1507 1507 1507 1506 1504 1502 1503 1498 1488 1482 1473 1469 1474 1479 1485 1490 1492 1495 1496 1504 1511
1508 1508 1507 1508 1509 1508 1506 1505 1505 1505 1505 1505 1505 1505 1505 1505 1506 1506 1508 1506 1505 1504 1505 1507 1506 1505 1504 1502 1500 1500 1499 1492 1481 1473 1472 1473 1476 1479 1487 1492 1490 1496 1501 1505 1508
1507 1507 1508 1508 1508 1506 1505 1504 1504 1505 1505 1505 1505 1504 1504 1505 1506 1510 1509 1507 1506 1505 1506 1507 1507 1506 1503 1500 1496 1494 1494 1487 1479 1478 1476 1477 1478 1481 1484 1488 1488 1491 1499 1506 1510
1507 1507 1508 1508 1506 1505 1504 1504 1504 1504 1504 1504 1504 1505 1505 1506 1507 1512 1510 1508 1506 1506 1506 1507 1505 1503 1500 1496 1493 1490 1487 1487 1483 1479 1482 1483 1484 1481 1485 1489 1486 1487 1494 1504 1509
1508 1508 1508 1507 1505 1505 1504 1504 1504 1503 1503 1504 1504 1505 1506 1509 1514 1513 1510 1509 1507 1509 1508 1507 1506 1502 1497 1493 1489 1486 1483 1484 1483 1481 1483 1488 1487 1484 1486 1490 1491 1494 1497 1503 1509
1508 1508 1507 1506 1505 1505 1504 1504 1503 1502 1503 1504 1505 1507 1508 1512 1516 1514 1512 1510 1509 1508 1507 1507 1505 1504 1501 1497 1493 1487 1483 1481 1483 1483 1481 1485 1487 1486 1486 1489 1492 1496 1499 1503 1507
1508 1507 1507 1506 1505 1505 1505 1504 1503 1503 1504 1505 1506 1508 1509 1517 1516 1514 1512 1510 1509 1508 1507 1506 1506 1506 1502 1497 1492 1490 1488 1482 1484 1482 1478 1484 1482 1481 1484 1487 1490 1494 1497 1499 1503
1508 1507 1506 1505 1506 1506 1506 1505 1505 1505 1507 1508 1509 1510 1515 1517 1516 1514 1512 1510 1508 1506 1506 1505 1505 1504 1503 1500 1494 1492 1487 1485 1479 1478 1477 1481 1474 1473 1480 1481 1484 1489 1493 1496 1498
1508 1507 1506 1506 1506 1507 1508 1507 1507 1508 1509 1510 1511 1512 1517 1517 1516 1515 1512 1509 1507 1505 1503 1502 1503 1502 1501 1497 1491 1486 1486 1478 1473 1469 1469 1470 1469 1471 1469 1470 1475 1483 1487 1491 1496
1508 1507 1507 1507 1508 1509 1510 1510 1511 1512 1511 1512 1514 1516 1519 1519 1516 1516 1512 1508 1506 1503 1498 1497 1497 1495 1493 1493 1489 1481 1472 1469 1467 1461 1457 1458 1457 1467 1463 1463 1468 1474 1480 1485 1490
1509 1508 1508 1509 1509 1511 1511 1511 1515 1517 1515 1516 1520 1519 1520 1519 1517 1516 1513 1510 1506 1501 1501 1498 1498 1494 1487 1484 1478 1476 1472 1467 1456 1450 1452 1447 1447 1457 1461 1465 1467 1471 1474 1479 1486
1510 1509 1509 1510 1510 1511 1512 1513 1514 1517 1520 1520 1520 1520 1520 1519 1518 1519 1516 1512 1507 1505 1506 1503 1497 1497 1499 1496 1492 1488 1481 1471 1459 1453 1452 1442 1447 1450 1455 1458 1465 1468 1470 1474 1481
1511 1510 1510 1511 1511 1512 1513 1515 1515 1515 1516 1522 1521 1521 1520 1520 1521 1520 1518 1514 1510 1509 1511 1511 1510 1506 1505 1505 1501 1494 1489 1481 1474 1462 1451 1451 1456 1454 1454 1454 1458 1464 1468 1473 1478
1512 1511 1510 1511 1514 1515 1515 1515 1515 1514 1510 1519 1519 1521 1521 1520 1519 1520 1520 1520 1514 1515 1515 1509 1510 1509 1508 1507 1505 1503 1497 1492 1485 1480 1475 1453 1464 1459 1459 1454 1451 1457 1463 1468 1473
1513 1511 1511 1512 1515 1516 1516 1515 1515 1517 1516 1520 1520 1522 1520 1522 1523 1519 1520 1519 1516 1518 1516 1510 1505 1502 1502 1501 1503 1504 1503 1500 1496 1488 1480 1465 1466 1450 1450 1458 1452 1451 1458 1465 1471
1514 1512 1513 1515 1514 1515 1515 1515 1517 1515 1529 1516 1520 1520 1517 1519 1521 1520 1517 1518 1518 1518 1508 1507 1502 1501 1504 1504 1506 1503 1503 1500 1497 1494 1489 1473 1467 1459 1448 1448 1444 1447 1452 1463 1470
1516 1514 1513 1514 1517 1515 1516 1518 1515 1528 1518 1518 1521 1519 1516 1522 1518 1517 1514 1523 1527 1522 1514 1504 1501 1507 1509 1508 1505 1510 1510 1507 1504 1496 1488 1474 1474 1464 1448 1453 1446 1439 1446 1458 1468
1519 1517 1517 1516 1516 1517 1517 1515 1531 1523 1521 1522 1521 1516 1518 1519 1520 1515 1516 1525 1530 1529 1523 1517 1515 1510 1509 1513 1513 1508 1508 1510 1504 1494 1484 1469 1467 1463 1475 1475 1466 1463 1464 1468 1476
1521 1522 1521 1520 1519 1518 1520 1533 1527 1523 1527 1525 1517 1515 1515 1519 1522 1517 1526 1534 1536 1533 1537 1528 1515 1514 1515 1514 1512 1504 1500 1497 1497 1489 1513 1475 1462 1476 1489 1490 1490 1489 1484 1483 1486
1522 1525 1524 1522 1521 1520 1522 1528 1530 1532 1531 1526 1523 1524 1524 1529 1526 1525 1528 1540 1537 1534 1534 1533 1527 1524 1520 1517 1512 1512 1505 1504 1511 1510 1497 1468 1484 1509 1510 1508 1503 1499 1493 1492 1494
1524 1524 1526 1524 1523 1522 1531 1530 1533 1536 1535 1532 1529 1527 1529 1535 1531 1532 1534 1538 1538 1534 1530 1532 1528 1528 1518 1528 1523 1506 1505 1500 1493 1492 1500 1484 1518 1527 1522 1518 1515 1505 1500 1503 1503
1525 1524 1527 1526 1524 1522 1530 1531 1537 1535 1537 1537 1535 1535 1537 1536 1533 1536 1537 1537 1540 1537 1534 1530 1526 1528 1531 1527 1526 1514 1507 1497 1501 1502 1503 1502 1531 1534 1528 1525 1519 1512 1511 1507 1505
1527 1529 1530 1528 1537 1532 1536 1538 1538 1537 1538 1537 1536 1541 1542 1538 1538 1538 1538 1542 1542 1541 1541 1535 1525 1518 1520 1525 1531 1532 1524 1510 1507 1509 1515 1513 1529 1534 1533 1528 1524 1520 1515 1512 1511
1528 1536 1532 1530 1529 1531 1533 1534 1538 1543 1541 1541 1539 1541 1542 1540 1539 1543 1541 1541 1542 1543 1543 1541 1544 1543 1552 1561 1553 1547 1536 1533 1526 1533 1533 1538 1536 1534 1534 1532 1531 1528 1524 1520 1514
1531 1535 1535 1538 1533 1533 1534 1534 1535 1538 1541 1541 1539 1540 1542 1542 1545 1545 1546 1544 1544 1544 1544 1546 1554 1551 1554 1553 1552 1551 1544 1543 1546 1551 1548 1551 1546 1549 1543 1535 1527 1521 1522 1520 1517
1533 1535 1536 1536 1535 1534 1539 1538 1539 1540 1543 1544 1543 1541 1543 1547 1547 1550 1549 1550 1549 1543 1545 1548 1551 1553 1554 1548 1547 1561 1565 1565 1564 1563 1558 1554 1552 1557 1549 1543 1538 1534 1529 1525 1519
1535 1536 1536 1537 1535 1538 1542 1542 1543 1542 1546 1545 1545 1544 1543 1548 1548 1549 1552 1553 1551 1546 1545 1547 1546 1548 1546 1538 1538 1557 1572 1571 1572 1572 1567 1562 1565 1558 1548 1543 1541 1538 1534 1527 1520